"Pseudo-MPEC" for ZTF08YZ

Created 2019 Oct 11 13:07:33 UT using Find_Orb

Click here for an explanation of pseudo-MPECs

 
 Astrometry: 
     ZTF08YZ  C2019 10 07.42433003 23 11.34 +38 10 51.1 FixDup   20.75gUNEOCPI41
     ZTF08YZ  C2019 10 07.42433003 23 11.34 +38 10 51.1 Duplicat!20.75gUNEOCPI41
     ZTF08YZ  C2019 10 07.48620003 23 13.20 +38 10 39.9    ~AA47 20.03rUNEOCPI41
     ZTF08YZ  C2019 10 08.39377003 23 46.13 +38 07 52.7    ~AA47 20.59gUNEOCPI41
     ZTF08YZ  C2019 10 08.44962003 23 47.62 +38 07 41.2    ~AA47 20.28rUNEOCPI41
     ZTF08YZ  C2019 10 09.37006003 24 17.63 +38 04 22.7    ~AA47 20.06rUNEOCPI41
     ZTF08YZ  C2019 10 09.43064003 24 19.04 +38 04 09.0    ~AA47 20.04rUNEOCPI41
     ZTF08YZ  C2019 10 09.46131903 24 19.72 +38 04 01.8    ~AA47 20.68gUNEOCPI41

Station data:
(I41) Palomar Mountain--ZTF  (N33.357340 W116.859780)  US/California. 1.2-m
   f/2.44 Oschin Schmidt + CCD.

Orbital elements:  ZTF08YZ
   Perihelion 2019 Aug 29.960258 +/- 2.25 TT = 23:02:46 (JD 2458725.460258)
Epoch 2019 Oct  9.0 TT = JDT 2458765.5   Earth MOID: 0.4021   AutoNEOCP
M   9.23187493 +/- 1.2              (J2000 ecliptic)
n   0.23056779 +/- 0.0443           Peri.   95.18302 +/- 4.9
a   2.63392631 +/- 0.337            Node   264.78346 +/- 2.7
e   0.4811941 +/- 0.0684            Incl.    8.51445 +/- 0.26
P   4.27                   H 19.7   G  0.15   U 10.6  
q 1.36649638 +/- 0.0135    Q 3.90135624 +/- 0.689
7 of 8 observations 2019 Oct. 7-9; mean residual 0".09
Residuals in arcseconds: 
191007 I41  .09+  .02+    191008 I41  .04-  .13+    191009 I41  .15+  .09-    
191007 I41( .09+  .02+)   191008 I41  .03+  .16-    191009 I41  .11-  .13+    
191007 I41  .09-  .01-    191009 I41  .03-  .03-    

Ephemerides (geocentric):
Date (UTC) HH   RA              Dec         delta   r     elong  mag " sig PA
---- -- -- --  -------------   -----------  ------ ------ -----  --- ---- ---
2019 10 11 13  03 25 14.576   +37 54 48.06  .53736 1.4328 135.7 20.4 3.44  20
2019 10 11 14  03 25 15.509   +37 54 35.60  .53733 1.4330 135.7 20.4 3.55  20
2019 10 11 15  03 25 16.435   +37 54 23.09  .53730 1.4331 135.7 20.4 3.66  20
2019 10 11 16  03 25 17.356   +37 54 10.53  .53727 1.4332 135.8 20.4 3.76  20
2019 10 11 17  03 25 18.270   +37 53 57.91  .53723 1.4333 135.8 20.4 3.88  20
2019 10 11 18  03 25 19.178   +37 53 45.24  .53720 1.4335 135.9 20.4 3.99  21
2019 10 11 19  03 25 20.080   +37 53 32.51  .53717 1.4336 135.9 20.4 4.10  21
2019 10 11 20  03 25 20.976   +37 53 19.73  .53714 1.4337 135.9 20.4 4.22  21
2019 10 11 21  03 25 21.866   +37 53 06.89  .53711 1.4338 136.0 20.4 4.33  21
2019 10 11 22  03 25 22.749   +37 52 54.00  .53707 1.4340 136.0 20.4 4.45  21
2019 10 11 23  03 25 23.626   +37 52 41.06  .53704 1.4341 136.0 20.4 4.57  21
2019 10 12 00  03 25 24.497   +37 52 28.06  .53701 1.4342 136.1 20.4 4.69  21
2019 10 12 01  03 25 25.362   +37 52 15.00  .53698 1.4343 136.1 20.4 4.82  21
2019 10 12 02  03 25 26.221   +37 52 01.90  .53695 1.4345 136.1 20.4 4.94  21
2019 10 12 03  03 25 27.074   +37 51 48.73  .53692 1.4346 136.2 20.4 5.07  21
2019 10 12 04  03 25 27.920   +37 51 35.51  .53689 1.4347 136.2 20.4 5.20  21
2019 10 12 05  03 25 28.760   +37 51 22.24  .53686 1.4349 136.3 20.4 5.33  21
2019 10 12 06  03 25 29.594   +37 51 08.92  .53683 1.4350 136.3 20.4 5.46  21
2019 10 12 07  03 25 30.422   +37 50 55.54  .53680 1.4351 136.3 20.4 5.59  21
2019 10 12 08  03 25 31.244   +37 50 42.10  .53677 1.4352 136.4 20.4 5.73  21
2019 10 12 09  03 25 32.060   +37 50 28.61  .53674 1.4354 136.4 20.4 5.87  21
2019 10 12 10  03 25 32.869   +37 50 15.07  .53671 1.4355 136.4 20.4 6.01  21
2019 10 12 11  03 25 33.672   +37 50 01.47  .53668 1.4356 136.5 20.3 6.15  21
2019 10 12 12  03 25 34.469   +37 49 47.82  .53665 1.4357 136.5 20.3 6.29  21
2019 10 12 13  03 25 35.260   +37 49 34.11  .53662 1.4359 136.5 20.3 6.43  21
2019 10 12 14  03 25 36.045   +37 49 20.35  .53659 1.4360 136.6 20.3 6.58  21
2019 10 12 15  03 25 36.824   +37 49 06.53  .53656 1.4361 136.6 20.3 6.73  21
2019 10 12 16  03 25 37.597   +37 48 52.66  .53654 1.4362 136.7 20.3 6.88  21
2019 10 12 17  03 25 38.363   +37 48 38.74  .53651 1.4364 136.7 20.3 7.03  21
2019 10 12 18  03 25 39.124   +37 48 24.76  .53648 1.4365 136.7 20.3 7.18  21
2019 10 12 19  03 25 39.878   +37 48 10.73  .53645 1.4366 136.8 20.3 7.33  21
2019 10 12 20  03 25 40.626   +37 47 56.64  .53642 1.4368 136.8 20.3 7.49  22
2019 10 12 21  03 25 41.368   +37 47 42.50  .53639 1.4369 136.8 20.3 7.65  22
2019 10 12 22  03 25 42.104   +37 47 28.30  .53637 1.4370 136.9 20.3 7.81  22
2019 10 12 23  03 25 42.834   +37 47 14.05  .53634 1.4371 136.9 20.3 7.97  22
2019 10 13 00  03 25 43.558   +37 46 59.75  .53631 1.4373 137.0 20.3 8.13  22
2019 10 13 01  03 25 44.276   +37 46 45.39  .53629 1.4374 137.0 20.3 8.30  22
2019 10 13 02  03 25 44.987   +37 46 30.98  .53626 1.4375 137.0 20.3 8.46  22
2019 10 13 03  03 25 45.693   +37 46 16.51  .53623 1.4377 137.1 20.3 8.63  22
2019 10 13 04  03 25 46.392   +37 46 01.99  .53620 1.4378 137.1 20.3 8.80  22
2019 10 13 05  03 25 47.086   +37 45 47.41  .53618 1.4379 137.1 20.3 8.98  22
2019 10 13 06  03 25 47.773   +37 45 32.78  .53615 1.4380 137.2 20.3 9.15  22
2019 10 13 07  03 25 48.454   +37 45 18.10  .53613 1.4382 137.2 20.3 9.33  22
2019 10 13 08  03 25 49.129   +37 45 03.36  .53610 1.4383 137.2 20.3 9.50  22
2019 10 13 09  03 25 49.798   +37 44 48.57  .53607 1.4384 137.3 20.3 9.68  22
2019 10 13 10  03 25 50.461   +37 44 33.72  .53605 1.4386 137.3 20.3 9.87  22
2019 10 13 11  03 25 51.118   +37 44 18.82  .53602 1.4387 137.4 20.3 10.0  22
2019 10 13 12  03 25 51.769   +37 44 03.86  .53600 1.4388 137.4 20.3 10.2  22